Location: Northam
(31.6525°S, 116.6655°E)
Time: 09:07:01
(UTC+08:00)

N. Korean satellite - Pass Details

Date: 20 May 2021
Orbit: 450 x 500 km, 97.2° (Epoch: 13 June)

Event Time Altitude Azimuth Distance (km) Brightness Sun altitude
Rises 05:01:44 0° 6° (N) 2,482 10.4 -24.4°
Reaches altitude 10° 05:03:46 10° 3° (N) 1,624 9.3 -24.0°
Enters shadow 05:04:26 15° 1° (N) 1,346 8.9 -23.9°
